Weather in Nizhyn

Ukraine / Chernihiv Region     51°02′47″N   31°52′48″E
temp.,
°C
wind,
m/s
gust,
m/s
humid.,
%
clouds,
%
prec.,
mm/h
press.,
hPa
HPBL,
m
19 september, sun
sun1900:00+14nnw2289100 0.1 100747
03:00+13nnw2393100 0.4 1007108
06:00+12wnw229374 0.0 100751
09:00+13wsw34826 0.0 1007368
12:00+17wsw346021 0.0 1007973
15:00+16wsw3565100 0.4 1007752
18:00+13w6990100 1.6 1007509
21:00+11wsw5792100 6.2 1007422
20 september, mon
mon2000:00+9sw4687100 0.1 1007530
03:00+9sw4789100 0.3 1007513
06:00+8sw4790100 0.2 1007530
09:00+8sw5789100 0.3 1007523
12:00+8ssw5684100 0.0 1007578
15:00+8ssw4690100 0.1 1007512
18:00+9wsw2691100 0.2 1007483
21:00+8w6993100 1.9 1009655
21 september, tue
tue2100:00+7w61094100 0.7 1009729
03:00+7wnw61095100 1.4 1010495
06:00+6wnw61095100 0.2 1011565
09:00+6wnw6994100 1.3 1012651
12:00+5wnw6896100 0.4 1013812
15:00+5wnw7996100 1.1 1014767
18:00+5wnw61097100 1.3 1014861
21:00+5nw6997100 1.7 1015830
22 september, wed
wed2200:00+5nw61197100 0.2 1016609
03:00+5nw61097100 0.4 1015601
06:00+5nw5897100 0.1 1015682
09:00+5nw5897100 0.1 1016729
12:00+5nw5795100 0.3 1016792
15:00+6nw4791100 0.5 1015851
18:00+6nw4689100 0.1 1015973
21:00+5nw4692100 0.2 1015730
23 september, thu
thu2300:00+5wnw4595100 0.2 1014868
03:00+5nw4595100 0.4 1013877
06:00+5wnw4594100 0.3 1013842
09:00+5wnw3593100 0.4 1013731
12:00+6wnw3487100 0.1 1012770
15:00+8w3577100 0.1 1011759
18:00+7wsw2584100 0.1 1009378
21:00+5s3693100 0.1 1008128